FENGYUN 1C DEB

Satellite information

Favourite Embed

Satellite Type and Status

DEBRISIN ORBIT

Key statistics

Satellite FENGYUN 1C DEB at a glance.

Uptime

9714

Days in orbit

Revolutions

≈ 14.1

Per day

Orbit

SSO

Sun Synchronous Orbit

Inclination

99.1

Latest

Satellite identification and parameters

Extended collection of information and parameters for FENGYUN 1C DEB.

Object identification

Identified? True

Debris? True

Object name: FENGYUN 1C DEB

International designator: 1999-025ANX

Object number (NORAD): 30640

Object ID (CCSDS): 30640

Country: PEOPLES REPUBLIC OF CHINA (PRC)

Current information (Y/N): Y

RCS size: SMALL

Orbital parameters

Period: 101.794 minutes

Inclination: 99.057 deg

SMA: 7221.721 km

Apoapsis: 902.012 km

Periapsis: 785.159 km

RAAN: 57.3425 deg

Eccentricy: 0.00809036

Argument of periapsis: 102.2672 deg

Mean anomaly: 288.9595 deg

Mean motion: 14.14626342 rev/day

Mean motion (dot): 0.00004475 rev/day2

B* drag term: 0.00227777 1/REarth

Two-line elements (TLE)

Creation date: Dec. 12, 2025, 10:14 a.m.

Reference frame: TEME

Reference center: EARTH

Epoch: Dec. 12, 2025, 3:27 a.m. UTC

TLE line 0: 0 FENGYUN 1C DEB

TLE line 1: 1 30640U 99025ANX 25346.14441036 .00004475 00000-0 22778-2 0 9999

TLE line 2: 2 30640 99.0570 57.3425 0080904 102.2672 288.9595 14.14626342964370

Live tracking on map

Real-time ground track for satellite FENGYUN 1C DEB.

In-orbit conjunctions

A list of the most updated potential collisions computed for object FENGYUN 1C DEB.

Target Orbit TCA Probability of collision Miss distance Type
SUNSAT SSO 2025-01-26 02:35:28 0.0001629425 97.0 (m) PAYLOAD
METEOR 1-20 LEO 2024-12-23 07:28:37 0.0001256091 225.0 (m) PAYLOAD
METEOR 2-11 DEB LEO 2024-09-25 17:28:39 0.000571782 290.0 (m) DEBRIS
QUAKESAT SSO 2024-05-29 14:41:50 0.0001470908 911.0 (m) PAYLOAD

Associated space launch

Chinese polar orbiting meteorological satellite

FENGYUN 1C DEB was lifted into orbit during the mission ‘Long March 4B | Feng Yun 1C’, on board a Long March 4B space rocket.

The launch took place on May 10, 1999, 1:33 a.m. from Launch Complex 7.

For more information about the launch, click the button.

Launch to space Long March 4B | Feng Yun 1C
Long March 4B | Feng Yun 1C

Agency: N/A

Status: Launch Successful

Launch date: May 10, 1999, 1:33 a.m. UTC

Rocket: Long March 4B

Launch pad: Launch Complex 7

Location: Taiyuan Satellite Launch Center, People's Republic of China

...

Latest news about this satellite

There are no fresh news available about this satellite. Check back as we update our databases every day.


Newsletter sign-up

Weekly statistics, charts and insights to help you stay on top of the space industry.